Waarnemingen

Advertentie
Mijn weer
Norderney, Duitsland (10113): temperatuur & dauwpunt: 23.03.2017 21:00:00 - 29.03.2017 21:00:00 (CEST)Norderney, Duitsland (10113): temperatuur 5cm & temperatuur -5cm: 23.03.2017 21:00:00 - 29.03.2017 21:00:00 (CEST)Norderney, Duitsland (10113): temperatuur -20cm & temperatuur -100cm: 23.03.2017 21:00:00 - 29.03.2017 21:00:00 (CEST)Norderney, Duitsland (10113): windsnelheid & windstoten: 23.03.2017 21:00:00 - 29.03.2017 21:00:00 (CEST)Norderney, Duitsland (10113): windrichting: 23.03.2017 21:00:00 - 29.03.2017 21:00:00 (CEST)Norderney, Duitsland (10113): luchtdruk: 23.03.2017 21:00:00 - 29.03.2017 21:00:00 (CEST)Norderney, Duitsland (10113): zicht: 23.03.2017 21:00:00 - 29.03.2017 21:00:00 (CEST)Norderney, Duitsland (10113): Zonneschijnduur: 23.03.2017 21:00:00 - 29.03.2017 21:00:00 (CEST)Norderney, Duitsland (10113): neerslag: 23.03.2017 21:00:00 - 29.03.2017 21:00:00 (CEST)
Datum & Tijd tt [°C] td [°C] tt 5cm [°C] tt -5cm [°C] tt -20cm [°C] tt -100cm [°C] ff [km/u] ff [kn] fx [km/u] fx [kn] dd ppp [hPa] vv [km] sd [min] rr [mm]
29.03.2017 21:00:00 9,8 9,6 9,6 10,0 9,9 7,9 16 9 27 15 WZW 1022,5 4,0 0 0,3
29.03.2017 20:00:00 9,2 9,0 9,1 10,3 10,0 7,9 16 8 32 17 W 1021,9 2,2 0 0,2
29.03.2017 19:00:00 9,3 9,0 9,3 10,6 10,0 7,9 19 11 34 18 WZW 1021,3 6 0 0,0
29.03.2017 18:00:00 9,2 8,9 9,3 10,9 10,0 7,9 21 11 33 18 W 1021,0 4,4 0 0,0
29.03.2017 17:00:00 9,1 8,8 9,4 10,9 10,0 7,9 19 11 38 21 WZW 1021,0 4,2 0 0,0
29.03.2017 16:00:00 9,0 8,4 9,4 11,1 10,0 7,8 21 12 32 17 WZW 1021,1 8 0 0,0
29.03.2017 15:00:00 9,0 8,4 9,7 11,5 9,9 7,8 19 11 30 16 WZW 1020,9 5 0 0,0
29.03.2017 14:00:00 9,0 8,1 9,7 11,3 9,7 7,8 21 12 32 18 W 1020,9 7 0 0,0
29.03.2017 13:00:00 9,2 8,4 10,5 11,4 9,5 7,8 18 10 30 16 W 1020,8 5 0 0,0
29.03.2017 12:00:00 9,7 8,9 10,4 10,8 9,3 7,8 19 10 31 17 W 1020,6 7 0 0,0
29.03.2017 11:00:00 9,9 8,8 9,9 10,0 9,2 7,8 21 11 41 22 WZW 1019,9 24 0 0,0
29.03.2017 10:00:00 10,0 9,0 9,7 9,5 9,2 7,8 23 12 42 23 WZW 1019,5 21 0 0,0
29.03.2017 09:00:00 9,8 8,2 9,1 9,1 9,2 7,7 23 12 46 25 WZW 1019,1 17 0 0,1
29.03.2017 08:00:00 9,8 8,2 9,0 9,0 9,3 7,7 28 15 46 25 WZW 1018,9 13 0 0,2
29.03.2017 07:00:00 9,7 8,4 9,0 9,0 9,4 7,7 25 13 39 21 WZW 1018,7 11 0 0,0
29.03.2017 06:00:00 9,7 8,4 8,8 9,1 9,4 7,7 21 11 35 19 ZW 1018,4 10 0 0,2
29.03.2017 05:00:00 9,5 8,6 8,9 9,1 9,5 7,7 22 12 33 18 ZW 1018,5 6 0 0,3
29.03.2017 04:00:00 9,5 8,5 9,0 9,1 9,7 7,7 22 12 36 19 ZW 1018,6 6 0 0,0
29.03.2017 03:00:00 9,5 8,3 8,9 9,2 9,8 7,7 22 12 36 19 ZW 1018,7 6 0 0,0
29.03.2017 02:00:00 9,6 7,8 9,0 9,2 10,1 7,7 21 11 32 18 ZW 1018,9 6 0 0,0
29.03.2017 01:00:00 9,5 7,2 8,3 9,4 10,3 7,6 16 8 31 17 ZW 1019,3 4,4 0 0,0
29.03.2017 00:00:00 10,6 6,7 9,5 9,8 10,6 7,6 19 11 34 19 ZW 1019,2 5 0 0,0
28.03.2017 23:00:00 10,6 6,2 9,1 10,2 11,0 7,6 12 7 23 12 ZW 1019,3 6 0 0,0
28.03.2017 22:00:00 11,0 5,6 8,9 10,7 11,4 7,6 9 5 14 8 ZW 1019,3 8 0 0,0
28.03.2017 21:00:00 9,3 6,7 6,6 11,9 11,8 7,6 3 2 8 4 ZZW 1019,3 3,8 0 0,0
28.03.2017 20:00:00 11,1 6,0 8,5 13,6 12,1 7,6 4 2 15 8 WZW 1019,1 8 8 0,0
28.03.2017 19:00:00 12,8 0,6 12,5 15,5 12,1 7,6 10 6 16 9 WZW 1019,1 14 60 0,0
28.03.2017 18:00:00 11,8 4,7 14,6 17,0 11,9 7,6 5 3 11 6 W 1019,3 8 60 0,0
28.03.2017 17:00:00 10,9 4,2 16,9 17,8 11,4 7,6 6 3 13 7 W 1019,5 9 60 0,0
28.03.2017 16:00:00 10,2 4,3 15,5 18,0 10,7 7,6 10 5 16 9 W 1019,7 8 58 0,0
28.03.2017 15:00:00 11,3 4,2 17,4 17,7 9,8 7,6 11 6 16 8 W 1019,9 10 60 0,0
28.03.2017 14:00:00 11,5 5,8 17,2 16,2 8,9 7,6 8 5 13 7 WZW 1020,1 11 60 0,0
28.03.2017 13:00:00 8,8 6,1 14,9 14,0 8,0 7,6 4 2 10 5 N 1020,4 8 60 0,0
28.03.2017 12:00:00 8,3 5,5 13,4 11,5 7,3 7,6 5 3 9 5 N 1020,4 6 60 0,0
28.03.2017 11:00:00 8,1 5,9 11,8 9,0 6,9 7,6 5 3 10 5 NW 1020,2 5 60 0,0
28.03.2017 10:00:00 7,2 5,9 8,3 6,5 6,7 7,6 6 4 16 8 ZO 1020,2 7 58 0,0
28.03.2017 09:00:00 4,6 4,5 5,0 5,1 6,8 7,6 6 4 14 8 ZO 1020,2 0,2 40 0,0
28.03.2017 08:00:00 4,9 4,8 3,7 4,9 7,0 7,6 10 5 18 10 OZO 1019,9 2,6 8 0,0
28.03.2017 07:00:00 5,0 5,0 3,6 5,2 7,1 7,6 10 5 16 9 OZO 1019,8 2,1 0 0,0
28.03.2017 06:00:00 4,0 4,0 3,3 5,2 7,3 7,6 9 5 14 7 ONO 1020,3 0,1 0 0,0
28.03.2017 05:00:00 5,0 4,9 3,4 5,4 7,6 7,5 10 6 16 8 O 1020,6 3,2 0 0,0
28.03.2017 04:00:00 5,2 4,7 3,9 5,6 7,8 7,5 10 5 17 9 O 1021,2 4,1 0 0,0
28.03.2017 03:00:00 5,7 4,9 4,4 6,0 8,1 7,5 12 6 18 10 ONO 1021,8 6 0 0,0
28.03.2017 02:00:00 5,8 5,0 4,3 6,3 8,4 7,5 11 6 16 9 ONO 1022,3 6 0 0,0
28.03.2017 01:00:00 5,5 4,6 4,2 6,6 8,7 7,5 11 6 15 8 ONO 1022,5 5 0 0,0
28.03.2017 00:00:00 5,1 4,5 3,9 7,1 9,1 7,5 11 6 16 9 ONO 1023,0 6 0 0,0
27.03.2017 23:00:00 5,0 4,6 4,1 7,7 9,4 7,5 14 8 21 11 ONO 1023,1 5 0 0,0
27.03.2017 22:00:00 4,8 4,7 4,2 8,4 9,8 7,5 16 8 23 12 ONO 1023,2 3,9 0 0,0
27.03.2017 21:00:00 5,7 5,1 4,8 9,2 10,2 7,5 12 7 15 8 ONO 1023,0 6 0 0,0
27.03.2017 20:00:00 5,4 4,6 4,6 10,6 10,6 7,5 11 6 21 11 ONO 1023,0 7 39 0,0
27.03.2017 19:00:00 5,6 4,8 6,1 12,1 10,7 7,5 15 8 23 13 ONO 1023,1 7 39 0,0
27.03.2017 18:00:00 5,7 4,7 7,4 13,4 10,7 7,5 18 10 27 15 ONO 1023,5 4,2 25 0,0
27.03.2017 17:00:00 5,4 4,8 7,0 14,3 10,6 7,5 24 13 28 15 NO 1024,0 1,8 1 0,0
27.03.2017 16:00:00 5,6 4,9 7,8 15,3 10,2 7,5 23 12 28 15 NO 1024,5 1,2 8 0,0
27.03.2017 15:00:00 6,4 5,2 10,2 15,8 9,5 7,5 18 10 21 12 NO 1025,2 2,3 40 0,0
27.03.2017 14:00:00 7,9 5,9 12,8 15,3 8,7 7,5 14 8 18 10 NO 1025,7 5 60 0,0
27.03.2017 13:00:00 7,1 5,8 11,8 13,3 7,9 7,5 12 6 15 8 NO 1026,1 2,8 59 0,0
27.03.2017 12:00:00 6,8 5,4 11,4 11,3 7,3 7,5 10 5 12 7 NNO 1026,2 6 60 0,0
27.03.2017 11:00:00 6,5 5,7 9,9 8,7 6,9 7,5 5 3 15 8 ZO 1026,5 6 56 0,0
27.03.2017 10:00:00 5,3 5,3 7,2 6,8 6,8 7,5 7 4 16 9 OZO 1026,5 0,3 4 0,0
27.03.2017 09:00:00 4,4 4,4 5,0 6,0 6,8 7,5 8 4 18 10 OZO 1026,5 0,1 0 0,0
27.03.2017 08:00:00 4,3 4,3 4,3 5,7 6,8 7,5 11 6 19 10 OZO 1026,4 0,1 0 0,0
27.03.2017 07:00:00 4,3 4,3 4,2 5,6 6,9 7,4 8 4 19 10 O 1026,3 0,2 0 0,0
27.03.2017 06:00:00 4,6 4,5 4,5 5,4 7,0 7,4 11 6 19 10 O 1026,1 0,1 0 0,0
27.03.2017 05:00:00 4,3 3,8 3,8 5,0 7,3 7,4 11 6 18 10 O 1026,3 1,6 0 0,0
27.03.2017 04:00:00 4,4 3,9 3,1 5,3 7,5 7,4 9 5 16 8 O 1026,6 6 0 0,0
27.03.2017 03:00:00 4,8 4,3 3,3 5,7 7,8 7,4 9 5 16 9 O 1026,9 6 0 0,0
27.03.2017 02:00:00 5,0 4,5 3,8 6,0 8,1 7,4 12 7 17 9 ONO 1027,4 8 0 0,0
27.03.2017 01:00:00 4,8 4,1 3,7 6,4 8,4 7,4 12 7 16 9 ONO 1027,6 9 0 0,0
27.03.2017 00:00:00 4,9 4,2 3,7 7,0 8,7 7,4 12 6 15 8 ONO 1027,5 8 0 0,0
26.03.2017 23:00:00 4,6 4,5 3,1 7,9 9,0 7,4 5 3 19 11 O 1027,6 10 0 0,0
26.03.2017 22:00:00 5,0 4,6 4,9 8,3 9,3 7,4 14 8 23 12 ONO 1027,6 2,3 0 0,0
26.03.2017 21:00:00 5,5 4,7 4,7 9,0 9,7 7,4 17 9 22 12 ONO 1027,2 14 0 0,0
26.03.2017 20:00:00 5,8 4,9 5,4 10,1 10,0 7,4 19 10 25 13 NO 1026,9 12 23 0,0
26.03.2017 19:00:00 6,6 5,2 6,8 11,7 10,0 7,4 22 12 27 15 NO 1026,7 21 58 0,0
26.03.2017 18:00:00 7,4 5,7 8,9 12,9 9,9 7,4 22 12 25 13 NO 1026,9 14 12 0,0
26.03.2017 17:00:00 7,6 5,6 9,6 13,8 9,5 7,4 19 10 22 12 NO 1027,1 19 31 0,0
26.03.2017 16:00:00 8,5 5,9 12,7 12,7 9,2 7,4 16 8 18 10 NO 1027,3 19 22 0,0
26.03.2017 15:00:00 7,8 5,7 10,1 12,9 8,7 7,4 16 8 17 9 NO 1027,8 18 3 0,0
26.03.2017 14:00:00 7,4 5,4 11,0 12,9 8,1 7,4 10 6 12 7 NNO 1027,9 20 37 0,0
26.03.2017 13:00:00 7,3 5,2 10,5 11,0 7,7 7,4 8 5 13 7 NNO 1027,9 19 1 0,0
26.03.2017 12:00:00 7,2 5,4 9,2 10,3 7,2 7,3 9 5 10 6 NNO 1027,8 11 45 0,0
26.03.2017 11:00:00 6,8 5,2 9,7 8,3 6,8 7,3 9 5 11 6 NNO 1027,7 10 57 0,0
26.03.2017 10:00:00 6,7 4,8 8,9 6,7 6,7 7,3 5 3 10 5 NNO 1027,5 7 60 0,0
26.03.2017 09:00:00 6,8 5,3 6,2 5,4 6,8 7,3 4 2 9 5 O 1027,1 14 59 0,0
26.03.2017 08:00:00 5,4 4,3 3,9 5,5 7,0 7,3 7 4 17 9 O 1026,8 14 6 0,0
26.03.2017 07:00:00 6,3 4,9 5,7 5,6 7,1 7,3 15 8 22 12 NO 1026,6 15 0 0,0
26.03.2017 06:00:00 6,1 4,5 5,0 5,4 7,3 7,3 18 10 23 12 NNO 1026,8 21 0 0,0
26.03.2017 05:00:00 6,3 4,3 4,8 5,6 7,5 7,3 21 11 23 13 NNO 1026,9 25 0 0,0
26.03.2017 04:00:00 6,3 4,7 4,6 5,9 7,7 7,3 13 7 21 11 N 1027,2 15 0 0,0
26.03.2017 03:00:00 6,4 4,6 5,0 6,2 7,9 7,3 18 10 23 12 NNO 1027,8 19 0 0,0
26.03.2017 02:00:00 6,6 4,4 5,2 6,5 8,2 7,3 21 11 24 13 NNO 1027,9 20 0 0,0
26.03.2017 01:00:00 6,4 4,6 4,7 6,8 8,5 7,3 16 8 19 11 N 1028,2 14 0 0,0
26.03.2017 00:00:00 6,4 4,8 4,9 7,3 8,8 7,3 16 9 21 11 N 1028,7 13 0 0,0
25.03.2017 23:00:00 6,6 5,0 5,2 7,9 9,2 7,3 16 8 18 10 N 1029,2 8 0 0,0
25.03.2017 22:00:00 6,5 5,2 5,3 8,5 9,6 7,3 14 7 16 8 N 1029,1 5 0 0,0
25.03.2017 21:00:00 6,5 5,0 5,4 9,5 10,0 7,3 15 8 22 12 N 1028,9 11 0 0,0
25.03.2017 20:00:00 6,8 5,2 6,0 10,9 10,3 7,3 17 9 20 11 N 1028,9 18 47 0,0
25.03.2017 19:00:00 6,9 4,8 7,6 12,8 10,4 7,3 16 9 23 12 N 1028,8 23 60 0,0
25.03.2017 18:00:00 7,3 4,5 10,3 14,5 10,2 7,3 14 8 19 10 N 1029,3 18 60 0,0
25.03.2017 17:00:00 7,9 4,7 12,7 15,4 9,8 7,3 14 7 19 10 N 1030,2 26 60 0,0
25.03.2017 16:00:00 7,8 4,2 13,3 15,6 9,1 7,3 16 8 18 10 N 1031,0 21 59 0,0
25.03.2017 15:00:00 7,7 4,4 14,1 15,0 8,4 7,3 15 8 19 10 N 1031,9 22 60 0,0
25.03.2017 14:00:00 7,6 4,1 13,9 13,7 7,6 7,3 16 8 19 11 NNW 1032,8 16 60 0,0
25.03.2017 13:00:00 8,0 4,3 13,4 11,9 6,8 7,3 16 9 19 11 NW 1033,1 18 60 0,0
25.03.2017 12:00:00 7,6 4,0 12,8 9,6 6,2 7,3 14 7 18 10 NNW 1033,4 14 60 0,0
25.03.2017 11:00:00 6,9 4,1 11,1 7,3 5,8 7,3 14 7 16 9 NNW 1033,5 17 60 0,0
25.03.2017 10:00:00 6,4 4,3 8,6 5,2 5,7 7,2 12 6 14 8 NNW 1033,4 20 60 0,0
25.03.2017 09:00:00 5,6 3,6 4,3 3,9 5,7 7,2 10 5 12 7 NNW 1033,3 17 31 0,0
25.03.2017 08:00:00 5,3 3,7 2,9 3,6 5,9 7,2 8 4 16 9 NNW 1033,3 29 0 0,0
25.03.2017 07:00:00 5,3 3,0 3,1 3,7 6,1 7,2 14 8 16 9 N 1033,3 29 0 0,0
25.03.2017 06:00:00 5,1 2,6 2,8 3,8 6,3 7,2 11 6 13 7 N 1033,6 40 0 0,0
25.03.2017 05:00:00 5,1 3,7 2,9 4,1 6,6 7,2 11 6 14 7 N 1033,9 33 0 0,0
25.03.2017 04:00:00 5,3 3,2 3,0 4,2 6,9 7,2 12 6 14 7 N 1034,4 43 0 0,0
25.03.2017 03:00:00 4,9 2,3 1,5 4,5 7,2 7,2 7 4 9 5 N 1034,8 32 0 0,0
25.03.2017 02:00:00 5,1 1,8 2,4 5,1 7,6 7,2 7 4 16 9 NO 1034,8 44 0 0,0
25.03.2017 01:00:00 5,0 0,8 3,4 5,6 7,9 7,2 12 6 17 9 NO 1034,7 43 0 0,0
25.03.2017 00:00:00 5,6 1,1 4,1 6,2 8,3 7,2 15 8 19 10 NO 1034,8 29 0 0,0
24.03.2017 23:00:00 5,8 1,7 4,2 6,9 8,7 7,2 17 9 27 15 NO 1034,7 33 0 0,0
24.03.2017 22:00:00 5,8 3,4 4,6 7,7 9,2 7,2 24 13 31 17 NO 1034,2 15 0 0,0
24.03.2017 21:00:00 6,1 3,7 4,9 8,7 9,6 7,2 26 14 34 18 NNO 1034,0 16 0 0,0
24.03.2017 20:00:00 6,5 4,0 5,4 10,3 9,9 7,2 24 13 29 15 NNO 1033,6 13 50 0,0
24.03.2017 19:00:00 7,2 4,3 7,3 12,3 10,0 7,2 22 12 26 14 NNO 1033,4 13 60 0,0
24.03.2017 18:00:00 7,9 4,9 9,7 14,0 9,8 7,2 20 11 27 14 NNO 1033,3 9 60 0,0
24.03.2017 17:00:00 8,3 4,6 11,3 14,9 9,4 7,2 24 13 28 15 NNO 1033,6 8 60 0,0
24.03.2017 16:00:00 8,3 4,9 12,0 15,2 8,8 7,2 22 12 28 15 NNO 1033,7 11 59 0,0
24.03.2017 15:00:00 8,8 4,5 12,9 14,5 8,0 7,2 17 9 23 12 NO 1033,2 10 60 0,0
24.03.2017 14:00:00 8,4 4,1 11,6 12,9 7,2 7,2 18 10 22 12 NO 1033,3 12 60 0,0
24.03.2017 13:00:00 7,9 3,7 10,0 11,6 6,5 7,2 21 12 26 14 NO 1032,9 12 60 0,0
24.03.2017 12:00:00 8,0 3,6 10,8 9,4 5,9 7,2 19 11 26 14 ONO 1032,6 15 60 0,0
24.03.2017 11:00:00 7,5 3,8 9,6 7,0 5,5 7,2 20 11 25 14 ONO 1032,5 11 60 0,0
24.03.2017 10:00:00 6,7 4,2 7,6 4,9 5,3 7,2 19 10 23 12 ONO 1031,9 10 60 0,0
24.03.2017 09:00:00 6,1 3,2 5,9 3,5 5,4 7,2 16 9 23 12 ONO 1031,4 12 60 0,0
24.03.2017 08:00:00 5,2 2,9 3,6 3,2 5,6 7,2 15 8 19 11 ONO 1030,9 11 13 0,0
24.03.2017 07:00:00 5,1 3,0 3,4 3,3 5,8 7,2 15 8 19 10 ONO 1030,2 11 0 0,0
24.03.2017 06:00:00 4,8 2,2 2,7 3,5 6,0 7,2 13 7 19 11 ONO 1029,3 17 0 0,0
24.03.2017 05:00:00 4,4 1,5 2,8 3,7 6,3 7,2 16 9 22 12 ONO 1029,0 16 0 0,0
24.03.2017 04:00:00 4,9 2,0 2,5 4,2 6,5 7,2 10 5 21 11 O 1028,8 22 0 0,0
24.03.2017 03:00:00 5,5 2,5 3,8 4,6 6,8 7,2 17 9 25 13 ONO 1028,0 20 0 0,0
24.03.2017 02:00:00 6,0 2,5 4,6 4,9 7,1 7,2 20 11 30 16 ONO 1027,3 25 0 0,0
24.03.2017 01:00:00 6,3 2,5 4,9 5,3 7,4 7,2 21 11 26 14 ONO 1026,9 24 0 0,0
24.03.2017 00:00:00 6,1 3,3 4,3 5,8 7,7 7,2 18 10 27 15 ONO 1026,6 23 0 0,0
23.03.2017 23:00:00 6,2 4,2 4,8 6,2 8,0 7,2 20 11 24 13 ONO 1026,0 14 0 0,0
23.03.2017 22:00:00 6,5 3,4 4,9 6,9 8,4 7,2 16 9 21 11 ONO 1025,4 25 0 0,0
23.03.2017 21:00:00 - - - - - - - - - - - - - - -

tt = temperatuur
td = dauwpunt
tt 5cm = temperatuur 5cm
tt -5cm = temperatuur -5cm
tt -20cm = temperatuur -20cm
tt -100cm = temperatuur -100cm
ff = windsnelheid
fx = windstoten
dd = windrichting
ppp = luchtdruk
vv = zicht
sd = Zonneschijnduur
rr = neerslag

Weerstations in de omgeving